Torna al catalogo

FREGAT DEB

LostUNKNOWN
NORAD 46016·DEBRIS·🇷🇺 Russia

Lanciato Jul 18, 2011 da Baikonur Cosmodrome

Loading…

Prossimi Passaggi (prossime 24 ore)

TLE

ObsoletoSource: Space-Track

Epoca: Feb 7, 2023, 11:29 UTC

1 46016U 11037HT  23038.47896513  .00003710  00000-0  10080-1 0  9999
2 46016  51.3300  79.8255 1228379 105.1079 268.8686 11.64306202105377

Traccia FREGAT DEB in tempo reale con AllMySat

Download on the App Store